When you browse on this site, cookies collect data to enhance your experience and personalize the content and advertising you see.
Visit our Privacy Policy to learn more. By continuing to use the site, you agree to this use of cookies and data.

Hourly Weather Ngozi

Today, 24 September, Thursday

Time Temperature Precipitation Wind Pressure Humidity
00:00 +17°C° 0 mm 0 mps 618 mmHg 63%
01:00 +16°C° 0 mm 0 mps 617 mmHg 64%
02:00 +16°C° 0 mm 0 mps 617 mmHg 65%
03:00 +16°C° 0 mm 0 mps 617 mmHg 65%
04:00 +16°C° 0 mm 0 mps 617 mmHg 65%
05:00 +16°C° 0 mm 0 mps 617 mmHg 65%
06:00 +20°C° 0 mm 1 mps 619 mmHg 59%
07:00 +20°C° 0 mm 2 mps 620 mmHg 53%
08:00 +23°C° 0 mm 2 mps 621 mmHg 48%
09:00 +25°C° 0 mm 2 mps 621 mmHg 43%
10:00 +27°C° 0 mm 2 mps 622 mmHg 38%
11:00 +29°C° 0 mm 2 mps 622 mmHg 32%
12:00 +29°C° 0 mm 2 mps 621 mmHg 33%
13:00 +28°C° 0 mm 2 mps 620 mmHg 34%
14:00 +28°C° 0 mm 2 mps 619 mmHg 35%
15:00 +28°C° 0 mm 2 mps 618 mmHg 36%
16:00 +27°C° 0 mm 1 mps 618 mmHg 36%
17:00 +27°C° 0 mm 1 mps 618 mmHg 37%
18:00 +25°C° 0 mm 1 mps 618 mmHg 41%
19:00 +24°C° 0 mm 1 mps 618 mmHg 45%
20:00 +20°C° 0 mm 0 mps 618 mmHg 49%
21:00 +21°C° 0 mm 1 mps 618 mmHg 51%
22:00 +21°C° 0 mm 1 mps 618 mmHg 53%
23:00 +20°C° 0 mm 1 mps 618 mmHg 55%

Tomorrow, 25 September, Friday

Time Temperature Precipitation Wind Pressure Humidity
00:00 +20°C° 0 mm 1 mps 618 mmHg 57%
01:00 +19°C° 0 mm 1 mps 617 mmHg 58%
02:00 +19°C° 0 mm 1 mps 617 mmHg 59%
03:00 +19°C° 0 mm 1 mps 617 mmHg 61%
04:00 +16°C° 0 mm 0 mps 617 mmHg 63%
05:00 +16°C° 0 mm 0 mps 617 mmHg 66%
06:00 +17°C° 0 mm 0 mps 618 mmHg 62%
07:00 +20°C° 0 mm 1 mps 619 mmHg 58%
08:00 +21°C° 0 mm 1 mps 620 mmHg 54%
09:00 +23°C° 0 mm 1 mps 620 mmHg 50%
10:00 +24°C° 0 mm 1 mps 621 mmHg 46%
11:00 +26°C° 0 mm 1 mps 621 mmHg 42%
12:00 +27°C° 0 mm 1 mps 621 mmHg 38%
13:00 +29°C° 0 mm 2 mps 620 mmHg 34%
14:00 +30°C° 0 mm 2 mps 620 mmHg 30%
15:00 +29°C° 0 mm 2 mps 619 mmHg 33%
16:00 +27°C° 0 mm 2 mps 618 mmHg 37%
17:00 +26°C° 0 mm 2 mps 618 mmHg 40%
18:00 +24°C° 0 mm 2 mps 618 mmHg 45%
19:00 +23°C° 0 mm 1 mps 618 mmHg 49%
20:00 +20°C° 0 mm 0 mps 618 mmHg 54%
21:00 +21°C° 0 mm 1 mps 618 mmHg 57%
22:00 +20°C° 0 mm 1 mps 618 mmHg 60%
23:00 +19°C° 0 mm 1 mps 618 mmHg 63%

Day after tomorrow, 26 September, Saturday

Time Temperature Precipitation Wind Pressure Humidity
00:00 +19°C° 0 mm 1 mps 617 mmHg 66%
01:00 +18°C° 0 mm 1 mps 617 mmHg 68%
02:00 +16°C° 0 mm 1 mps 616 mmHg 70%
03:00 +16°C° 0 mm 1 mps 616 mmHg 72%
04:00 +16°C° 0 mm 1 mps 616 mmHg 73%
05:00 +15°C° 0 mm 1 mps 616 mmHg 75%
06:00 +17°C° 0 mm 0 mps 617 mmHg 65%
07:00 +20°C° 0 mm 0 mps 619 mmHg 55%
08:00 +23°C° 0 mm 0 mps 621 mmHg 46%
09:00 +27°C° 0 mm 1 mps 621 mmHg 40%
10:00 +29°C° 0 mm 2 mps 621 mmHg 33%
11:00 +31°C° 0 mm 2 mps 621 mmHg 27%
12:00 +30°C° 0 mm 2 mps 620 mmHg 29%
13:00 +29°C° 0 mm 3 mps 619 mmHg 31%
14:00 +28°C° 0 mm 3 mps 618 mmHg 33%
15:00 +27°C° 0 mm 3 mps 618 mmHg 37%
16:00 +26°C° 0 mm 2 mps 617 mmHg 40%
17:00 +26°C° 0 mm 2 mps 617 mmHg 43%
18:00 +24°C° 0.2 mm 1 mps 617 mmHg 50%
19:00 +22°C° 0.2 mm 1 mps 617 mmHg 57%
20:00 +21°C° 0.2 mm 1 mps 617 mmHg 65%
21:00 +20°C° 0.3 mm 1 mps 617 mmHg 71%
22:00 +17°C° 0.3 mm 0 mps 617 mmHg 77%
23:00 +16°C° 0.3 mm 0 mps 617 mmHg 83%

27 September, Sunday

Time Temperature Precipitation Wind Pressure Humidity
00:00 +16°C° 0.2 mm 0 mps 617 mmHg 84%
01:00 +16°C° 0.2 mm 0 mps 616 mmHg 84%
02:00 +16°C° 0.2 mm 0 mps 616 mmHg 85%
03:00 +15°C° 0 mm 0 mps 616 mmHg 85%
04:00 +16°C° 0 mm 1 mps 616 mmHg 85%
05:00 +16°C° 0 mm 1 mps 616 mmHg 86%
06:00 +17°C° 0 mm 0 mps 617 mmHg 76%
07:00 +20°C° 0 mm 0 mps 619 mmHg 67%
08:00 +22°C° 0 mm 0 mps 620 mmHg 57%
09:00 +26°C° 0.3 mm 1 mps 620 mmHg 50%
10:00 +28°C° 0.3 mm 1 mps 621 mmHg 44%
11:00 +30°C° 0.3 mm 2 mps 621 mmHg 37%
12:00 +28°C° 0.3 mm 2 mps 620 mmHg 41%
13:00 +27°C° 0.3 mm 2 mps 618 mmHg 45%
14:00 +26°C° 0.3 mm 2 mps 617 mmHg 48%
15:00 +24°C° 1.5 mm 2 mps 617 mmHg 59%
16:00 +23°C° 1.5 mm 1 mps 616 mmHg 69%
17:00 +21°C° 1.5 mm 1 mps 616 mmHg 79%
18:00 +20°C° 1.8 mm 1 mps 616 mmHg 81%
19:00 +20°C° 1.8 mm 1 mps 617 mmHg 83%
20:00 +19°C° 1.8 mm 1 mps 617 mmHg 86%
21:00 +19°C° 0.4 mm 1 mps 617 mmHg 86%
22:00 +18°C° 0.4 mm 1 mps 617 mmHg 86%
23:00 +16°C° 0.4 mm 0 mps 617 mmHg 87%

28 September, Monday

Time Temperature Precipitation Wind Pressure Humidity
00:00 +16°C° 0 mm 0 mps 617 mmHg 85%
01:00 +16°C° 0 mm 0 mps 617 mmHg 84%
02:00 +16°C° 0 mm 0 mps 617 mmHg 83%
03:00 +16°C° 0 mm 0 mps 617 mmHg 84%
04:00 +16°C° 0 mm 0 mps 617 mmHg 85%
05:00 +16°C° 0 mm 0 mps 617 mmHg 85%
06:00 +17°C° 0 mm 0 mps 618 mmHg 80%
07:00 +18°C° 0 mm 0 mps 619 mmHg 75%
08:00 +20°C° 0 mm 0 mps 620 mmHg 70%
09:00 +21°C° 0.2 mm 0 mps 620 mmHg 65%
10:00 +24°C° 0.2 mm 1 mps 620 mmHg 61%
11:00 +25°C° 0.2 mm 1 mps 620 mmHg 56%
12:00 +26°C° 0.2 mm 2 mps 620 mmHg 52%
13:00 +27°C° 0.2 mm 2 mps 619 mmHg 48%
14:00 +28°C° 0.2 mm 2 mps 619 mmHg 44%
15:00 +27°C° 0.4 mm 2 mps 619 mmHg 47%
16:00 +26°C° 0.4 mm 2 mps 618 mmHg 51%
17:00 +25°C° 0.4 mm 1 mps 618 mmHg 54%
18:00 +23°C° 1.2 mm 1 mps 618 mmHg 64%
19:00 +21°C° 1.2 mm 1 mps 618 mmHg 75%
20:00 +17°C° 1.2 mm 0 mps 618 mmHg 85%
21:00 +19°C° 0.8 mm 1 mps 618 mmHg 86%
22:00 +18°C° 0.8 mm 1 mps 618 mmHg 87%
23:00 +18°C° 0.8 mm 1 mps 618 mmHg 88%

29 September, Tuesday

Time Temperature Precipitation Wind Pressure Humidity
00:00 +18°C° 0 mm 1 mps 617 mmHg 89%
01:00 +15°C° 0 mm 0 mps 617 mmHg 89%
02:00 +15°C° 0 mm 0 mps 617 mmHg 90%
03:00 +15°C° 0 mm 0 mps 617 mmHg 90%
04:00 +15°C° 0 mm 0 mps 617 mmHg 89%
05:00 +15°C° 0 mm 0 mps 617 mmHg 89%
06:00 +17°C° 0 mm 0 mps 618 mmHg 82%
07:00 +19°C° 0 mm 0 mps 619 mmHg 76%
08:00 +21°C° 0 mm 0 mps 620 mmHg 69%
09:00 +24°C° 0.5 mm 1 mps 620 mmHg 62%
10:00 +26°C° 0.5 mm 1 mps 621 mmHg 55%
11:00 +27°C° 0.5 mm 2 mps 621 mmHg 48%
12:00 +27°C° 0.6 mm 2 mps 620 mmHg 50%
13:00 +26°C° 0.6 mm 2 mps 619 mmHg 53%
14:00 +26°C° 0.6 mm 1 mps 617 mmHg 55%
15:00 +24°C° 0.7 mm 1 mps 617 mmHg 63%
16:00 +22°C° 0.7 mm 1 mps 616 mmHg 70%
17:00 +21°C° 0.7 mm 1 mps 615 mmHg 78%
18:00 +20°C° 0.4 mm 1 mps 616 mmHg 81%
19:00 +19°C° 0.4 mm 1 mps 616 mmHg 83%
20:00 +19°C° 0.4 mm 1 mps 617 mmHg 86%
21:00 +18°C° 0.4 mm 1 mps 617 mmHg 86%
22:00 +18°C° 0.4 mm 1 mps 617 mmHg 87%
23:00 +18°C° 0.4 mm 1 mps 617 mmHg 87%
Show more